CW4171 Ibiza ES current weather conditions

sailwx.info

Wind from 327

Air temperature 6.1° C
Dewpoint 5.2° C

Last reported at 2020-Feb-23 04:09 UTC.
Time now 2020-Feb-23 04:50 UTC

Location: N 38°59' E 001°18'.
View on Google Maps.

See reports from other nearby stations

  
Tides and Currents Weather Stations Pressure Air Temp Water Temp Dewpoint Dewpoint Depression Visibility Wind Speed Wind Dir Waves Ship Positions
date/time (UTC)wind fromknots sea level pressurealtimeterstation pressurevisibilityair tempwater tempwave heightnotes
2020-Feb-23 04:09 327 6.1
2020-Feb-23 03:59 328 6.1
2020-Feb-23 03:49 328 6.1
2020-Feb-23 03:39 327 6.1
2020-Feb-23 03:29 328 6.1
2020-Feb-23 03:19 329 6.1
2020-Feb-23 03:09 329 6.7
2020-Feb-23 02:59 329 6.1
2020-Feb-23 02:49 329 6.1
2020-Feb-23 02:39 329 6.1
2020-Feb-23 02:29 329 6.1
2020-Feb-23 02:19 329 7.8
2020-Feb-23 02:09 329 7.8
2020-Feb-23 01:59 329 7.8
2020-Feb-23 01:49 329 7.8
2020-Feb-23 01:39 329 7.2
2020-Feb-23 01:29 329 6.7
2020-Feb-23 01:19 329 6.7
2020-Feb-23 00:59 329 7.2
2020-Feb-23 00:49 329 7.8
2020-Feb-23 00:39 329 7.8
2020-Feb-23 00:29 329 8.3
2020-Feb-23 00:19 329 7.8
2020-Feb-23 00:09 329 7.8
2020-Feb-22 23:59 329 7.8
2020-Feb-22 23:49 329 7.8
2020-Feb-22 23:39 329 7.8
2020-Feb-22 23:29 329 7.8
2020-Feb-22 23:19 329 7.8
2020-Feb-22 23:09 329 7.8
2020-Feb-22 22:59 329 7.8
2020-Feb-22 22:49 329 8.3
2020-Feb-22 22:39 329 9.4
2020-Feb-22 22:29 329 8.9
2020-Feb-22 22:19 329 8.3
2020-Feb-22 22:09 329 8.9
2020-Feb-22 21:59 329 8.9
2020-Feb-22 21:49 329 8.9
2020-Feb-22 21:39 329 8.9
2020-Feb-22 21:29 329 8.9
2020-Feb-22 21:19 329 9.4
2020-Feb-22 21:09 329 9.4
2020-Feb-22 20:59 329 9.4
2020-Feb-22 20:49 329 9.4
2020-Feb-22 20:39 329 10.0
2020-Feb-22 20:29 329 10.0
2020-Feb-22 20:19 329 10.0
2020-Feb-22 20:09 330 10.6
2020-Feb-22 19:59 330 10.6
2020-Feb-22 19:49 330 11.1
2020-Feb-22 19:39 330 11.1
2020-Feb-22 19:29 330 11.7
2020-Feb-22 19:19 330 12.2
2020-Feb-22 19:09 315 12.2
2020-Feb-22 18:59 314 12.2
2020-Feb-22 18:49 314 12.2
2020-Feb-22 18:39 314 13.3
2020-Feb-22 18:29 314 13.3
2020-Feb-22 18:19 314 13.9
2020-Feb-22 18:09 314 13.9
2020-Feb-22 17:59 314 13.9
2020-Feb-22 17:49 314 14.4
2020-Feb-22 17:39 314 14.4
2020-Feb-22 17:29 313 15.0
2020-Feb-22 17:19 313 15.0
2020-Feb-22 17:09 313 15.6
2020-Feb-22 16:59 298 15.6
2020-Feb-22 16:49 290 15.6
2020-Feb-22 16:39 311 15.6
2020-Feb-22 16:29 309 15.6
2020-Feb-22 16:19 277 15.6
2020-Feb-22 16:09 278 15.6
2020-Feb-22 15:59 273 15.6
2020-Feb-22 15:49 282 15.6
2020-Feb-22 15:39 288 15.6
2020-Feb-22 15:29 276 15.6
2020-Feb-22 15:19 272 15.6
2020-Feb-22 15:09 295 15.6
2020-Feb-22 14:59 273 15.6
2020-Feb-22 14:49 281 15.6
2020-Feb-22 14:39 286 15.6
2020-Feb-22 14:29 290 15.6
2020-Feb-22 14:19 277 15.6
2020-Feb-22 14:09 296 15.6
2020-Feb-22 13:59 287 15.6
2020-Feb-22 13:49 275 15.6
2020-Feb-22 13:39 274 15.6
2020-Feb-22 13:29 267 15.6
2020-Feb-22 13:19 281 15.6
2020-Feb-22 13:09 297 15.6
2020-Feb-22 12:59 295 16.1
2020-Feb-22 12:49 284 15.6
2020-Feb-22 12:39 296 15.6
2020-Feb-22 12:29 292 15.6
2020-Feb-22 12:19 286 15.6
2020-Feb-22 12:09 273 15.6
2020-Feb-22 11:59 284 15.6
2020-Feb-22 11:49 264 15.6
2020-Feb-22 11:39 298 15.6
2020-Feb-22 11:29 277 15.6
2020-Feb-22 11:19 291 15.6
2020-Feb-22 11:09 288 15.6
2020-Feb-22 10:59 266 15.6
2020-Feb-22 10:49 273 15.0
2020-Feb-22 10:39 196 15.0
2020-Feb-22 10:29 172 15.0
2020-Feb-22 10:19 172 15.0
2020-Feb-22 10:09 171 15.0
2020-Feb-22 09:59 171 14.4
2020-Feb-22 09:49 171 14.4
2020-Feb-22 09:39 171 13.9
2020-Feb-22 09:29 169 13.9
2020-Feb-22 09:19 170 14.4
2020-Feb-22 09:09 169 13.3
2020-Feb-22 08:59 169 12.8
2020-Feb-22 08:49 175 11.7
2020-Feb-22 08:39 175 10.6
2020-Feb-22 08:29 175 9.4
2020-Feb-22 08:19 175 8.9
2020-Feb-22 08:09 175 7.8
2020-Feb-22 07:59 175 7.8
2020-Feb-22 07:49 175 7.2
2020-Feb-22 07:39 175 6.7
2020-Feb-22 07:29 175 7.2
2020-Feb-22 07:19 175 6.7
2020-Feb-22 07:09 175 6.1
2020-Feb-22 06:59 175 5.6
2020-Feb-22 06:49 175 5.6
2020-Feb-22 06:39 175 5.6
2020-Feb-22 06:29 175 5.0
2020-Feb-22 06:19 175 5.0
2020-Feb-22 06:09 175 5.6
2020-Feb-22 05:59 175 5.0
2020-Feb-22 05:49 175 5.6
2020-Feb-22 05:39 175 5.6
2020-Feb-22 05:29 215 5.6
2020-Feb-22 05:19 215 5.0
2020-Feb-22 05:09 215 5.6
2020-Feb-22 04:59 214 5.6
2020-Feb-22 04:49 215 5.6
2020-Feb-22 04:39 215 5.6
2020-Feb-22 04:29 214 5.6
2020-Feb-22 04:19 214 6.1
2020-Feb-22 04:09 215 6.1
2020-Feb-22 03:59 215 5.6
2020-Feb-22 03:49 214 6.1
2020-Feb-22 03:39 215 6.1
2020-Feb-22 03:29 215 6.1
2020-Feb-22 03:19 214 5.6
2020-Feb-22 03:09 215 6.1
2020-Feb-22 02:59 215 5.6
2020-Feb-22 02:49 215 5.6
2020-Feb-22 02:39 215 6.7
2020-Feb-22 02:29 215 6.7
2020-Feb-22 02:19 215 6.1
2020-Feb-22 02:09 215 6.1
2020-Feb-22 01:59 215 6.1
2020-Feb-22 01:49 215 6.7
2020-Feb-22 01:39 214 6.7
2020-Feb-22 01:29 214 6.7
2020-Feb-22 01:19 215 6.7
2020-Feb-22 01:09 215 6.7
2020-Feb-22 00:59 215 6.7
2020-Feb-22 00:49 215 7.2
2020-Feb-22 00:39 215 7.2
2020-Feb-22 00:29 215 7.2
2020-Feb-22 00:19 215 7.2
2020-Feb-22 00:09 215 7.2
2020-Feb-21 23:59 215 7.8
2020-Feb-21 23:49 215 7.2
2020-Feb-21 23:39 215 7.2
2020-Feb-21 23:29 215 7.2
2020-Feb-21 23:19 215 7.2
2020-Feb-21 23:09 215 7.2
2020-Feb-21 22:59 215 7.2
2020-Feb-21 22:49 215 7.2
2020-Feb-21 22:39 215 7.2
2020-Feb-21 22:29 215 7.2
2020-Feb-21 22:19 215 7.8
2020-Feb-21 22:09 215 8.3
2020-Feb-21 21:59 215 8.3
2020-Feb-21 21:49 215 8.3
2020-Feb-21 21:39 215 8.3
2020-Feb-21 21:29 215 8.9
2020-Feb-21 21:19 215 8.9
2020-Feb-21 21:09 215 8.9
2020-Feb-21 20:59 215 8.9
2020-Feb-21 20:49 215 9.4
2020-Feb-21 20:39 215 9.4
2020-Feb-21 20:29 215 9.4
2020-Feb-21 20:19 226 9.4
2020-Feb-21 20:09 226 10.0
2020-Feb-21 19:59 226 10.0
2020-Feb-21 19:49 226 10.6
2020-Feb-21 19:39 226 10.6
2020-Feb-21 19:29 226 10.6
2020-Feb-21 19:19 248 11.7
2020-Feb-21 19:09 271 12.2
2020-Feb-21 18:59 271 12.2
2020-Feb-21 18:49 271 12.8
2020-Feb-21 18:39 271 12.8
2020-Feb-21 18:29 271 13.9
2020-Feb-21 18:19 271 13.9
2020-Feb-21 18:09 271 13.9
2020-Feb-21 17:59 271 14.4
2020-Feb-21 17:49 271 14.4
2020-Feb-21 17:39 271 14.4
2020-Feb-21 17:29 271 15.0
2020-Feb-21 17:19 271 15.0
2020-Feb-21 17:09 271 15.0
2020-Feb-21 16:59 265 15.0
2020-Feb-21 16:49 263 15.0
2020-Feb-21 16:39 262 15.0
2020-Feb-21 16:29 260 15.6
2020-Feb-21 16:19 265 15.6
2020-Feb-21 16:09 269 15.6
2020-Feb-21 15:59 307 16.1
2020-Feb-21 15:49 325 15.6
2020-Feb-21 15:39 311 15.6
2020-Feb-21 15:29 278 15.6
2020-Feb-21 15:19 273 16.1
2020-Feb-21 15:09 288 16.1
2020-Feb-21 14:59 281 16.7
2020-Feb-21 14:49 265 17.2
2020-Feb-21 14:39 167 17.2
2020-Feb-21 14:29 170 17.2
2020-Feb-21 14:19 173 17.2
2020-Feb-21 14:09 176 0 17.2
2020-Feb-21 13:59 140 0 17.8
2020-Feb-21 13:49 175 17.8
2020-Feb-21 13:39 142 17.2
2020-Feb-21 13:29 108 17.8
2020-Feb-21 13:19 121 17.8
2020-Feb-21 13:09 141 17.2
2020-Feb-21 12:59 099 17.2
2020-Feb-21 12:49 118 1 17.2
2020-Feb-21 12:39 110 1 17.2
2020-Feb-21 12:29 123 17.8
2020-Feb-21 12:19 079 1 17.8
2020-Feb-21 12:09 109 3 17.8
2020-Feb-21 11:59 140 5 17.2
2020-Feb-21 11:49 116 17.8
2020-Feb-21 11:39 103 17.8
2020-Feb-21 11:29 101 0 17.8
2020-Feb-21 11:19 083 17.2
2020-Feb-21 11:09 153 17.2
2020-Feb-21 10:59 153 16.7
2020-Feb-21 10:49 153 16.7
2020-Feb-21 10:39 160 16.1
2020-Feb-21 10:29 340 16.1
2020-Feb-21 10:19 239 15.6
2020-Feb-21 10:09 239 15.0
2020-Feb-21 09:59 239 14.4
2020-Feb-21 09:49 238 14.4
2020-Feb-21 09:39 336 14.4
2020-Feb-21 09:29 337 13.9
2020-Feb-21 09:19 337 13.3
2020-Feb-21 09:09 337 12.8
2020-Feb-21 08:59 337 12.2
2020-Feb-21 08:49 336 11.7
2020-Feb-21 08:39 336 11.1
2020-Feb-21 08:29 336 10.0
2020-Feb-21 08:19 336 9.4
2020-Feb-21 08:09 336 9.4
2020-Feb-21 07:59 335 8.9
2020-Feb-21 07:49 335 7.8
2020-Feb-21 07:39 334 7.8
2020-Feb-21 07:29 336 7.8
2020-Feb-21 07:19 336 7.8
2020-Feb-21 07:09 336 6.7
2020-Feb-21 06:59 336 6.1
2020-Feb-21 06:49 336 6.1
2020-Feb-21 06:39 336 5.6
2020-Feb-21 06:29 336 6.1
2020-Feb-21 06:19 336 5.6
2020-Feb-21 06:09 336 5.6
2020-Feb-21 05:59 336 5.6
2020-Feb-21 05:49 336 5.6
2020-Feb-21 05:39 336 5.0
2020-Feb-21 05:29 336 5.0
2020-Feb-21 05:19 336 5.6
2020-Feb-21 05:09 336 5.6
2020-Feb-21 04:59 336 5.6
2020-Feb-21 04:49 336 5.6
2020-Feb-21 04:39 336 5.6
2020-Feb-21 04:29 336 5.6
2020-Feb-21 04:19 336 5.6
2020-Feb-21 04:09 336 6.7